Tracking 25370 objects as of 25-Jan-2022
HD Live streaming from Space Station
objects crossing your sky now

STARLINK-2381

Track STARLINK-2381 now!
10-day predictions
STARLINK-2381 is classified as:


NORAD ID: 47800
Int'l Code: 2021-018P
Perigee: 553.1 km
Apogee: 555.6 km
Inclination: 53.1 °
Period: 95.6 minutes
Semi major axis: 6925 km
RCS: Unknown
Launch date: March 11, 2021
Source: United States (US)
Launch site: AIR FORCE EASTERN TEST RANGE (AFETR)
aabbcc
Your satellite tracking list
Your tracking list is empty




NASA's NSSDC Master Catalog

Two Line Element Set (TLE):
1 47800U 21018P   22024.80735467  .00000770  00000-0  70584-4 0  9993
2 47800  53.0558 147.3046 0001788  74.4630 285.6557 15.06395792 50055
Source of the keplerian elements: AFSPC